Location: M?digepalle
(16.1753°N, 80.3496°E)
Time: 09:09:21
(UTC+00:00)

Meteor 1-16 Rocket - Pass Details

Date: 29 October 2020
Orbit: 790 x 908 km, 81.2° (Epoch: 27 November)

Event Time Altitude Azimuth Distance (km) Brightness Sun altitude
Exits shadow 22:37:50 77° 55° (NE) 826 4.1 -28.5°
Maximum altitude 22:38:01 79° 84° (E) 823 4.1 -28.5°
Drops below altitude 10° 22:43:28 10° 171° (S) 2,413 6.7 -27.2°
Sets 22:45:53 0° 172° (S) 3,362 7.5 -26.6°
